Hourly Data Report for June 18, 2003

SHERBROOKE A
QUEBEC

45°26'00.000" N
71°41'00.000" W
241.40 m
7028124
71610
YSC

Download Data

Hourly Data (June 2003)
Hourly Data Report for June 18, 2003
TIME
LST
Temp Definition
°C
Dew Point Definition
°C
Rel Hum Definition
%
Precip. Amount Definition
mm

Wind Dir Definition
10's deg

Wind Spd Definition
km/h
Visibility Definition
km
Stn Press Definition
kPa
Hmdx Definition


Wind Chill Definition


Weather Definition


00:00 11.0 10.3 95   12 4 15.0 98.71      
01:00 10.0 9.3 95     0 15.0 98.71      
02:00 9.2 8.7 97   8 4 15.0 98.71      
03:00 9.6 9.1 97   6 6 15.0 98.68      
04:00 9.1 8.5 96     0 15.0 98.66      
05:00 11.8 11.3 97     0 15.0 98.68      
06:00 15.1 12.7 86     0 15.0 98.66      
07:00 16.7 12.4 76   21 6 24.1 98.67     Mostly Cloudy
08:00 17.6 12.8 73   21 6 24.1 98.62     Mostly Cloudy
09:00 19.4 13.8 70   22 7 24.1 98.57     Mostly Cloudy
10:00 20.8 13.8 64   24 6 24.1 98.52     Mostly Cloudy
11:00 22.6 14.5 60   25 6 24.1 98.44 26   Mostly Cloudy
12:00 23.7 14.2 55   18 7 24.1 98.35 27   Mainly Clear
13:00 24.8 14.8 54   22 13 24.1 98.25 29   Mainly Clear
14:00 25.7 14.5 50   20 9 24.1 98.18 29   Mainly Clear
15:00 23.4 14.3 57   21 6 24.1 98.12 27   Mainly Clear
16:00 25.4 14.2 50   20 9 24.1 98.05 29   Mainly Clear
17:00 24.0 13.3 51   22 11 15.0 98.00 27    
18:00 22.3 12.4 53   22 11 15.0 98.00 25    
19:00 20.6 11.9 57   21 6 15.0 97.98      
20:00 17.8 11.6 67   21 7 15.0 98.01      
21:00 16.6 11.4 71   18 9 15.0 98.06      
22:00 14.9 11.2 79   22 6 15.0 98.10      
23:00 13.0 10.9 87   17 6 15.0 98.10      

Notes on Data Quality.

Legend

  • E = Estimated
  • M = Missing
  • NA = Not Available*
  • [empty] = Indicates an unobserved value
Date modified: